Location: Helsinki
(60.1699°N, 24.9384°E)
Time: 02:55:33
(UTC+02:00)

Transit 4A - Pass Details

Date: 30 October 2020
Orbit: 862 x 982 km, 66.8° (Epoch: 25 November)

Event Time Altitude Azimuth Distance (km) Brightness Sun altitude
Rises 00:37:40 0° 313° (NW) 3,699 11.3 -43.3°
Enters shadow 00:39:30 - 306° (NW) 3,099 10.8 -43.2°
Reaches altitude 10° 00:40:40 10° 301° (WNW) 2,746 - -43.2°
Maximum altitude 00:45:44 25° 249° (WSW) 1,854 - -43.0°
Drops below altitude 10° 00:50:45 10° 196° (SSW) 2,706 - -42.9°
Sets 00:53:42 0° 184° (S) 3,633 - -42.8°
